Regional Weather Roundup
Issued by NWS Kansas City/Pleasant Hill, MO

Home | Current Version | Previous Version | Graphics & Text | Print | Product List | Glossary Off
Versions: 1 2 3 4 5 6 7 8 9 10 11 12 13 14 15 16 17 18 19 20 21 22 23 24 25 26 27 28 29 30 31 32 33 34 35 36 37 38 39 40 41 42 43 44 45 46 47 48 49 50

000
ASUS43 KEAX 280510
RWREAX

WEATHER ROUNDUP FOR EASTERN KANSAS AND NORTHWEST MISSOURI
NATIONAL WEATHER SERVICE KANSAS CITY/PLEASANT HILL MO
1100 PM CST MON FEB 27 2017

KSZ040-057-103>105-MOZ028-029-037-043-280600-
...KANSAS CITY METROPOLITAN AREA...

CITY           SKY/WX    TMP DP  RH WIND       PRES   REMARKS
K.C. INTL      MOCLDY    58  51  78 S15       29.75F
K.C. DOWNTOWN  PTCLDY    61  52  72 S14       29.76S
LEES SUMMIT    PTCLDY    59  52  77 S16       29.78F
OLATHE - IXD   MOCLDY    59  53  80 S16       29.76F
OLATHE - OJC   CLOUDY    59  54  83 S14       29.77F
LAWRENCE         N/A     59  55  87 MISG      29.74F

$$

MOZ001>008-011>017-020>025-030>033-038>040-044>046-053-054-280600-
...NORTHERN AND CENTRAL MISSOURI...

CITY           SKY/WX    TMP DP  RH WIND       PRES   REMARKS
ST. JOSEPH     CLOUDY    48  39  71 S5        29.75F
MOSBY          CLOUDY    55  45  67 SE3       29.77F
WARRENSBURG    PTCLDY    57  48  72 S12       29.80F
WHITEMAN AFB   PTCLDY    59  55  85 S17       29.80F
CLINTON        CLOUDY    59  52  77 S17       29.84S
SEDALIA        CLOUDY    60  50  69 S17G25    29.84F
WARSAW         NOT AVBL
CHILLICOTHE      N/A     57  41  55 S9        29.80F
KIRKSVILLE     CLOUDY    51  37  58 S8        29.82F

$$

MOZ041-047>049-056>058-063>065-088>090-097-280600-
...EASTERN AND SOUTHERN MISSOURI...

CITY           SKY/WX    TMP DP  RH WIND       PRES   REMARKS
ST. LOUIS INTL CLOUDY    58  50  75 S15       29.95F
SPIRIT OF STL  CLOUDY    58  50  75 S10       29.93F
COLUMBIA       MOCLDY    58  49  72 S21       29.88S
JEFFERSON CITY PTCLDY    59  48  67 S14G23    29.90S
ROLLA          CLOUDY    55  49  80 S16       29.93F THUNDER
OSAGE BEACH    CLOUDY    58  49  72 S13       29.90F
SPRINGFIELD    CLOUDY    57  51  80 S18       29.90F
BRANSON        CLOUDY    57  54  88 SE9       29.96S
JOPLIN         CLOUDY    62  56  80 S17       29.85F
WEST PLAINS    CLOUDY    54  51  90 S10       30.00F

$$

IAZ060-094-KSZ022-034>040-054-083-096-NEZ052-066-093-280600-
...KANSAS...SOUTHEAST NEBRASKA AND IOWA...

CITY           SKY/WX    TMP DP  RH WIND       PRES   REMARKS
TOPEKA         PTCLDY    60  56  86 S14G23    29.72S
MANHATTAN      CLEAR     57  51  80 S12       29.67F
EMPORIA        CLOUDY    60  56  86 S22G32    29.73S
CHANUTE        CLOUDY    63  58  83 S18       29.80S
WICHITA        CLOUDY    58  57  97 S21G31    29.73R FOG
OMAHA          CLOUDY    42  30  62 CALM      29.72F
LINCOLN        CLOUDY    36  31  82 CALM      29.70F
FALLS CITY     CLOUDY    49  40  71 SE6       29.71F
LAMONI         CLOUDY    52  35  52 S6        29.77F
DES MOINES     CLOUDY    48  31  51 E9        29.78F

$$




USA.gov is the U.S. government's official web portal to all federal, state and local government web resources and services.